Millinocket, ME

1:19 PM EDT on April 24, 2017 (GMT -0400)
Millinocket Municipal

Weather History for KMLT - September, 2013

Change the Weather History Date:

Sunday, September 22, 2013

  Actual Average Record
Temperature  
Mean Temperature 59 °F 55 °F  
Max Temperature 66 °F 65 °F 91 °F (1914)
Min Temperature 52 °F 44 °F 24 °F (1950)
Degree Days  
Heating Degree Days 6 11  
Month to date heating degree days 118 150  
Since 1 July heating degree days 163 229  
Cooling Degree Days 0 0  
Month to date cooling degree days 28 15  
Year to date cooling degree days 380 266  
Growing Degree Days 10 (Base 50)    
Moisture  
Dew Point 60 °F    
Average Humidity 85    
Maximum Humidity 93    
Minimum Humidity 77    
Precipitation  
Precipitation 0.90 in 0.13 in 2.24 in (1950)
Month to date precipitation 4.64 2.60  
Year to date precipitation 30.13 29.53  
Sea Level Pressure  
Sea Level Pressure 29.62 in    
Wind  
Wind Speed 7 mph (SW)    
Max Wind Speed 16 mph    
Max Gust Speed 28 mph    
Visibility 7 miles    
Events Rain    
T = Trace of Precipitation, MM = Missing Value Source: NWS Daily Summary

Daily Weather History Graph

Daily Weather History Graph

Search for Another Location

Airport or City:

Trip Planner

Search our weather history database for the weather conditions in past years. The results will help you decide how hot, cold, wet, or windy it might be!

Date:

Astronomy

Sep. 22, 2013 Rise Set
Actual Time 6:22 AM EDT 6:31 PM EDT
Civil Twilight 5:52 AM EDT 7:01 PM EDT
Nautical Twilight 5:17 AM EDT 7:36 PM EDT
Astronomical Twilight 4:41 AM EDT 8:11 PM EDT
Moon 8:06 PM EDT (9/22) 9:50 AM EDT (9/22)
Length of Visible Light 13h 09m
Length of Day
12h 09m
Waning Gibbous, 89% of the Moon is Illuminated
Sep 22
Waning Gibbous
Sep 26
Last Quarter
Oct 4
New
Oct 11
First Quarter
Oct 18
Full

Hourly Weather History & Observations

Time (EDT) Temp. Dew Point Humidity Pressure Visibility Wind Dir Wind Speed Gust Speed Precip Events Conditions
12:53 AM 64.0 °F 60.1 °F 87% 29.76 in 10.0 mi Variable 5.8 mph - N/A   Overcast
1:53 AM 63.0 °F 59.0 °F 87% 29.73 in 10.0 mi SE 10.4 mph 16.1 mph N/A   Overcast
2:53 AM 63.0 °F 57.9 °F 84% 29.71 in 10.0 mi SSE 8.1 mph - N/A   Overcast
3:53 AM 62.1 °F 59.0 °F 90% 29.68 in 10.0 mi South 8.1 mph 16.1 mph 0.00 in   Overcast
4:53 AM 64.0 °F 60.1 °F 87% 29.66 in 10.0 mi SSE 9.2 mph 20.7 mph N/A   Overcast
5:53 AM 64.0 °F 61.0 °F 90% 29.65 in 9.0 mi SSE 9.2 mph - 0.00 in Rain Light Rain
6:53 AM 64.9 °F 63.0 °F 93% 29.62 in 6.0 mi Variable 5.8 mph - 0.06 in Rain Light Rain
7:48 AM 66.2 °F 62.6 °F 88% 29.59 in 1.8 mi SSE 8.1 mph 23.0 mph 0.08 in Rain Rain
7:53 AM 66.0 °F 63.0 °F 90% 29.61 in 3.0 mi South 10.4 mph 23.0 mph 0.08 in Rain Light Rain
8:53 AM 66.0 °F 63.0 °F 90% 29.61 in 10.0 mi Variable 6.9 mph - 0.02 in   Overcast
9:51 AM 66.2 °F 62.6 °F 88% 29.60 in 1.5 mi Variable 6.9 mph - 0.11 in Rain Light Rain
9:53 AM 66.0 °F 63.0 °F 90% 29.60 in 0.8 mi SW 10.4 mph 16.1 mph 0.16 in Rain Heavy Rain
10:03 AM 64.4 °F 60.8 °F 88% 29.58 in 0.8 mi SW 8.1 mph - 0.10 in Rain Heavy Rain
10:09 AM 64.4 °F 60.8 °F 88% 29.58 in 1.8 mi SW 8.1 mph - 0.11 in Rain Rain
10:21 AM 62.6 °F 60.8 °F 94% 29.58 in 0.8 mi WSW 9.2 mph 21.9 mph 0.22 in Rain Heavy Rain
10:27 AM 62.6 °F 60.8 °F 94% 29.58 in 1.0 mi WSW 8.1 mph 21.9 mph 0.25 in Rain Heavy Rain
10:31 AM 62.6 °F 60.8 °F 94% 29.58 in 0.8 mi Variable 5.8 mph - 0.30 in Rain Heavy Rain
10:41 AM 62.6 °F 60.8 °F 94% 29.58 in 1.8 mi Variable 3.5 mph - 0.33 in Rain Light Rain
10:44 AM 62.6 °F 60.8 °F 94% 29.58 in 3.0 mi Calm Calm - 0.33 in Rain Light Rain
10:53 AM 64.0 °F 61.0 °F 90% 29.59 in 10.0 mi Calm Calm - 0.33 in Rain Light Rain
11:15 AM 64.4 °F 62.6 °F 94% 29.58 in 10.0 mi Calm Calm - 0.00 in Rain Light Rain
11:42 AM 66.2 °F 62.6 °F 88% 29.58 in 6.0 mi Variable 4.6 mph - 0.03 in Rain Light Rain
11:53 AM 66.0 °F 63.0 °F 90% 29.58 in 7.0 mi Variable 4.6 mph - 0.03 in Rain Light Rain
12:21 PM 66.2 °F 62.6 °F 88% 29.58 in 9.0 mi SW 8.1 mph - 0.00 in Rain Light Rain
12:23 PM 66.2 °F 62.6 °F 88% 29.58 in 2.0 mi Variable 5.8 mph - 0.04 in Rain Light Rain
12:26 PM 64.4 °F 62.6 °F 94% 29.58 in 1.2 mi West 8.1 mph - 0.05 in Rain Heavy Rain
12:35 PM 62.6 °F 60.8 °F 94% 29.59 in 1.5 mi Variable 5.8 mph - 0.10 in Rain Heavy Rain
12:40 PM 62.6 °F 60.8 °F 94% 29.60 in 2.0 mi Variable 3.5 mph - 0.10 in Rain Rain
12:53 PM 63.0 °F 61.0 °F 93% 29.61 in 3.0 mi Variable 3.5 mph - 0.13 in Rain Light Rain
1:02 PM 62.6 °F 60.8 °F 94% 29.59 in 9.0 mi Calm Calm - 0.00 in Rain Light Rain
1:53 PM 64.9 °F 61.0 °F 87% 29.60 in 10.0 mi WSW 3.5 mph - 0.00 in   Overcast
2:42 PM 66.2 °F 62.6 °F 88% 29.59 in 10.0 mi SSE 4.6 mph - 0.00 in   Mostly Cloudy
2:53 PM 66.0 °F 62.1 °F 87% 29.60 in 10.0 mi Variable 3.5 mph - 0.00 in   Mostly Cloudy
3:00 PM 64.4 °F 60.8 °F 88% 29.58 in 10.0 mi Calm Calm - N/A   Mostly Cloudy
3:15 PM 64.4 °F 62.6 °F 94% 29.58 in 6.0 mi SSE 3.5 mph - 0.01 in Rain Light Rain
3:53 PM 64.9 °F 62.1 °F 90% 29.59 in 10.0 mi SSE 3.5 mph - 0.03 in Rain Light Rain
4:13 PM 66.2 °F 62.6 °F 88% 29.58 in 10.0 mi Variable 3.5 mph - 0.00 in   Overcast
4:43 PM 64.4 °F 62.6 °F 94% 29.58 in 10.0 mi Calm Calm - 0.00 in   Mostly Cloudy
4:53 PM 64.9 °F 62.1 °F 90% 29.60 in 10.0 mi Calm Calm - 0.00 in   Overcast
5:22 PM 64.4 °F 62.6 °F 94% 29.59 in 10.0 mi Calm Calm - N/A   Overcast
5:53 PM 64.0 °F 55.9 °F 75% 29.62 in 6.0 mi West 4.6 mph - 0.00 in Rain Rain
6:53 PM 60.1 °F 55.9 °F 86% 29.64 in 9.0 mi West 5.8 mph - 0.04 in Rain Light Rain
7:53 PM 57.9 °F 53.1 °F 84% 29.66 in 10.0 mi WNW 10.4 mph 17.3 mph 0.01 in Rain Light Rain
8:53 PM 57.0 °F 51.1 °F 81% 29.68 in 10.0 mi WNW 8.1 mph - 0.00 in   Overcast
9:53 PM 55.9 °F 48.0 °F 75% 29.68 in 10.0 mi WNW 9.2 mph 17.3 mph N/A   Overcast
10:53 PM 54.0 °F 46.9 °F 77% 29.70 in 10.0 mi West 10.4 mph 19.6 mph 0.01 in   Overcast
11:53 PM 53.1 °F 46.0 °F 77% 29.71 in 10.0 mi WNW 10.4 mph 21.9 mph N/A   Overcast